Location: Kellogg
(38.0159°N, 90.0546°W)
Time: 08:03:25
(UTC+00:00)

Altair - Pass Details

Date: 22 September 2024
Orbit: 1501 x 1682 km, 47.2° (Epoch: 07 October)

Event Time Altitude Azimuth Distance (km) Brightness Sun altitude
Rises 08:41:57 0° 271° (W) 4,844 - -35.6°
Reaches altitude 10° 08:45:12 10° 276° (W) 3,880 - -35.1°
Exits shadow 08:51:56 42° 308° (NW) 2,244 8.1 -34.0°
Maximum altitude 08:54:53 52° 352° (N) 2,003 8.1 -33.5°
Drops below altitude 10° 09:04:47 10° 67° (ENE) 3,947 10.5 -31.8°
Sets 09:08:07 0° 73° (ENE) 4,933 11.3 -31.2°
